Weather History for Corinth, MS

Change the Weather History Date:

Tuesday, April 29, 2014

  Actual Average Record
Temperature  
Mean Temperature 67 °F -  
Max Temperature 77 °F 76 °F 90 °F (1937)
Min Temperature 57 °F 51 °F 35 °F (1965)
Cooling Degree Days 2    
Growing Degree Days 17 (Base 50)    
Moisture  
Dew Point 53 °F    
Average Humidity 66    
Maximum Humidity 94    
Minimum Humidity 36    
Precipitation  
Precipitation 0.10 in - - ()
Sea Level Pressure  
Sea Level Pressure 29.75 in    
Wind  
Wind Speed 9 mph (NNE)    
Max Wind Speed 14 mph    
Max Gust Speed 22 mph    
Visibility 10 miles    
Events Rain , Thunderstorm    
Averages and records for this station are not official NWS values.
T = Trace of Precipitation, MM = Missing Value Source: NWS Daily Summary

Daily Weather History Graph

Daily Weather History Graph

Search for Another Location

Airport:

Trip Planner

Search our weather history database for the weather conditions in past years. The results will help you decide how hot, cold, wet, or windy it might be!

Date:

Astronomy

Apr. 29, 2014 Rise Set
Actual Time 6:05 AM CDT 7:38 PM CDT
Civil Twilight 5:38 AM CDT 8:05 PM CDT
Nautical Twilight 5:06 AM CDT 8:37 PM CDT
Astronomical Twilight 4:32 AM CDT 9:11 PM CDT
Moon 6:23 AM CDT (4/29) 8:17 PM CDT (4/29)
Length of Visible Light 14h 26m
Length of Day
13h 32m
New Moon, 0% of the Moon is Illuminated
Apr 29
New Moon
May 6
First Quarter
May 14
Full
May 21
Last Quarter
May 28
New

Hourly Weather History & Observations

Time (CDT) Temp. Dew Point Humidity Pressure Visibility Wind Dir Wind Speed Gust Speed Precip Events Conditions
10:50 AM 73.4 °F 55.4 °F 53% 29.73 in 10.0 mi SSW 11.5 mph - N/A   Clear
11:10 AM 73.4 °F 55.4 °F 53% 29.73 in 10.0 mi SSW 9.2 mph - N/A   Clear
11:30 AM 75.2 °F 55.4 °F 50% 29.73 in 10.0 mi SW 12.7 mph - N/A   Clear
11:50 AM 75.2 °F 53.6 °F 47% 29.74 in 10.0 mi SSW 11.5 mph 19.6 mph N/A   Clear
12:10 PM 75.2 °F 53.6 °F 47% 29.73 in 10.0 mi SW 11.5 mph - N/A   Clear
12:30 PM 77.0 °F 51.8 °F 41% 29.73 in 10.0 mi WSW 10.4 mph - N/A   Clear
12:50 PM 77.0 °F 48.2 °F 36% 29.72 in 10.0 mi SW 11.5 mph 20.7 mph N/A   Clear
1:10 PM 77.0 °F 57.2 °F 50% 29.72 in 10.0 mi WNW 10.4 mph 19.6 mph N/A   Clear
1:30 PM 75.2 °F 55.4 °F 50% 29.72 in 10.0 mi NNW 12.7 mph 20.7 mph N/A   Scattered Clouds
1:50 PM 75.2 °F 53.6 °F 47% 29.72 in 10.0 mi NW 9.2 mph - N/A   Partly Cloudy
2:10 PM 75.2 °F 51.8 °F 44% 29.71 in 10.0 mi NNW 13.8 mph 18.4 mph N/A   Clear
2:30 PM 75.2 °F 50.0 °F 41% 29.72 in 10.0 mi NNW 13.8 mph 21.9 mph N/A   Clear
2:50 PM 75.2 °F 50.0 °F 41% 29.73 in 10.0 mi NW 10.4 mph 19.6 mph N/A   Clear
3:10 PM 73.4 °F 46.4 °F 38% 29.73 in 10.0 mi NW 11.5 mph - N/A   Scattered Clouds
3:30 PM 71.6 °F 46.4 °F 41% 29.73 in 10.0 mi NW 11.5 mph 21.9 mph N/A   Mostly Cloudy
3:50 PM 69.8 °F 46.4 °F 43% 29.74 in 10.0 mi NNW 11.5 mph 18.4 mph N/A   Mostly Cloudy
4:10 PM 68.0 °F 44.6 °F 43% 29.75 in 10.0 mi NW 9.2 mph 17.3 mph N/A   Mostly Cloudy
4:30 PM 66.2 °F 46.4 °F 49% 29.73 in 9.0 mi North 4.6 mph - N/A Rain Light Rain
4:50 PM 66.2 °F 48.2 °F 52% 29.73 in 10.0 mi NNE 5.8 mph - N/A Rain Light Rain
5:10 PM 62.6 °F 51.8 °F 68% 29.75 in 2.0 mi NE 4.6 mph - 0.04 in Rain Light Rain
5:30 PM 60.8 °F 53.6 °F 77% 29.76 in 5.0 mi East 3.5 mph - 0.07 in Rain Rain
5:50 PM 62.6 °F 55.4 °F 77% 29.75 in 10.0 mi East 5.8 mph - 0.07 in   Mostly Cloudy
6:10 PM 62.6 °F 53.6 °F 72% 29.75 in 10.0 mi East 4.6 mph - N/A   Overcast
6:30 PM 62.6 °F 55.4 °F 77% 29.73 in 10.0 mi East 5.8 mph - N/A   Scattered Clouds
6:50 PM 60.8 °F 55.4 °F 82% 29.72 in 10.0 mi ESE 5.8 mph - N/A   Clear
7:10 PM 60.8 °F 53.6 °F 77% 29.74 in 10.0 mi East 5.8 mph - N/A   Scattered Clouds
7:30 PM 60.8 °F 53.6 °F 77% 29.76 in 9.0 mi ESE 4.6 mph - 0.01 in Rain Light Rain
7:50 PM 59.0 °F 55.4 °F 88% 29.77 in 7.0 mi NW 5.8 mph - 0.03 in Rain , Thunderstorm Light Rain
8:10 PM 59.0 °F 55.4 °F 88% 29.77 in 10.0 mi East 3.5 mph - N/A   Mostly Cloudy
8:30 PM 59.0 °F 55.4 °F 88% 29.78 in 10.0 mi Calm Calm - N/A   Mostly Cloudy
8:50 PM 59.0 °F 57.2 °F 94% 29.78 in 10.0 mi South 5.8 mph - N/A   Overcast
9:10 PM 59.0 °F 55.4 °F 88% 29.78 in 10.0 mi ESE 6.9 mph - N/A   Overcast
9:30 PM 59.0 °F 55.4 °F 88% 29.77 in 10.0 mi ESE 6.9 mph - N/A   Overcast
9:50 PM 59.0 °F 53.6 °F 82% 29.78 in 10.0 mi ESE 3.5 mph - N/A   Mostly Cloudy
10:10 PM 59.0 °F 53.6 °F 82% 29.79 in 10.0 mi SE 3.5 mph - N/A   Mostly Cloudy
10:30 PM 59.0 °F 53.6 °F 82% 29.79 in 10.0 mi Calm Calm - N/A   Overcast
10:50 PM 57.2 °F 55.4 °F 94% 29.79 in 10.0 mi NNW 3.5 mph - N/A   Overcast
11:10 PM 57.2 °F 55.4 °F 94% 29.79 in 10.0 mi Calm Calm - N/A   Mostly Cloudy
11:30 PM 57.2 °F 55.4 °F 94% 29.80 in 10.0 mi Calm Calm - N/A   Mostly Cloudy
11:50 PM 57.2 °F 55.4 °F 94% 29.80 in 10.0 mi Calm Calm - N/A   Overcast